Iron Mountain, MI

8:08 PM CDT on August 20, 2017 (GMT -0500)
Ford

Weather History for KIMT - November, 2013

Change the Weather History Date:

Saturday, November 2, 2013

  Actual Average Record
Temperature  
Mean Temperature 34 °F -  
Max Temperature 43 °F 49 °F 70 °F (1990)
Min Temperature 27 °F 31 °F 6 °F (1951)
Degree Days  
Heating Degree Days 30    
Moisture  
Dew Point 31 °F    
Average Humidity 79    
Maximum Humidity 93    
Minimum Humidity 57    
Precipitation  
Precipitation 0.00 in - - ()
Sea Level Pressure  
Sea Level Pressure 29.94 in    
Wind  
Wind Speed 6 mph (North)    
Max Wind Speed 14 mph    
Max Gust Speed 17 mph    
Visibility 10 miles    
Events Rain    
Averages and records for this station are not official NWS values.
T = Trace of Precipitation, MM = Missing Value Source: NWS Daily Summary

Daily Weather History Graph

Daily Weather History Graph

Search for Another Location

Airport or City:

Trip Planner

Search our weather history database for the weather conditions in past years. The results will help you decide how hot, cold, wet, or windy it might be!

Date:

Astronomy

Nov. 02, 2013 Rise Set
Actual Time 7:34 AM CDT 5:36 PM CDT
Civil Twilight 7:03 AM CDT 6:08 PM CDT
Nautical Twilight 6:27 AM CDT 6:43 PM CDT
Astronomical Twilight 5:53 AM CDT 7:18 PM CDT
Moon 6:29 AM CDT (11/2) 5:09 PM CDT (11/2)
Length of Visible Light 11h 05m
Length of Day
10h 02m
Waning Crescent, 1% of the Moon is Illuminated
Nov 2
Waning Crescent
Nov 3
New
Nov 9
First Quarter
Nov 17
Full
Nov 25
Last Quarter

Hourly Weather History & Observations

Time (CDT) Temp. Windchill Dew Point Humidity Pressure Visibility Wind Dir Wind Speed Gust Speed Precip Events Conditions
12:20 AM 39.2 °F 35.0 °F 33.8 °F 81% 29.72 in 10.0 mi NNW 5.8 mph - N/A   Overcast
12:36 AM 39.2 °F 33.6 °F 33.8 °F 81% 29.73 in 10.0 mi North 8.1 mph - N/A   Overcast
12:54 AM 39.0 °F 33.4 °F 33.1 °F 79% 29.76 in 10.0 mi North 8.1 mph - N/A   Overcast
1:04 AM 37.4 °F 31.4 °F 33.8 °F 87% 29.74 in 10.0 mi NNW 8.1 mph - N/A   Overcast
1:54 AM 37.0 °F 32.4 °F 33.1 °F 86% 29.79 in 10.0 mi North 5.8 mph - N/A   Overcast
2:54 AM 35.1 °F - 30.9 °F 85% 29.80 in 10.0 mi Calm Calm - N/A   Mostly Cloudy
3:54 AM 34.0 °F 31.0 °F 30.9 °F 89% 29.82 in 10.0 mi NNW 3.5 mph - N/A   Overcast
4:54 AM 36.0 °F 33.3 °F 32.0 °F 86% 29.84 in 10.0 mi North 3.5 mph - N/A   Overcast
5:25 AM 37.4 °F 33.8 °F 32.0 °F 81% 29.82 in 10.0 mi North 4.6 mph - N/A   Overcast
5:33 AM 37.4 °F 33.8 °F 33.8 °F 87% 29.82 in 10.0 mi NNW 4.6 mph - N/A   Overcast
5:54 AM 36.0 °F 31.1 °F 33.1 °F 89% 29.86 in 10.0 mi NNW 5.8 mph - N/A   Overcast
6:31 AM 35.6 °F 32.8 °F 33.8 °F 93% 29.84 in 10.0 mi NNW 3.5 mph - N/A   Overcast
6:40 AM 37.4 °F 33.8 °F 33.8 °F 87% 29.85 in 10.0 mi NNW 4.6 mph - N/A   Overcast
6:54 AM 37.0 °F 32.4 °F 33.1 °F 86% 29.89 in 10.0 mi NNW 5.8 mph - N/A   Overcast
7:54 AM 36.0 °F 31.1 °F 33.1 °F 89% 29.91 in 7.0 mi North 5.8 mph - 0.00 in Rain Light Rain
8:20 AM 37.4 °F 32.8 °F 33.8 °F 87% 29.89 in 10.0 mi North 5.8 mph - 0.00 in   Overcast
8:54 AM 37.0 °F 31.6 °F 33.1 °F 86% 29.94 in 8.0 mi NNE 6.9 mph - 0.00 in Rain Light Rain
9:04 AM 37.4 °F 33.8 °F 33.8 °F 87% 29.90 in 10.0 mi North 4.6 mph - 0.00 in   Overcast
9:27 AM 37.4 °F 32.8 °F 33.8 °F 87% 29.91 in 10.0 mi NNE 5.8 mph - 0.00 in   Overcast
9:54 AM 37.9 °F 34.4 °F 33.1 °F 83% 29.96 in 10.0 mi NE 4.6 mph - 0.00 in   Overcast
10:23 AM 39.2 °F 33.0 °F 32.0 °F 75% 29.93 in 10.0 mi NNE 9.2 mph - N/A   Overcast
10:51 AM 39.2 °F 33.6 °F 32.0 °F 75% 29.94 in 10.0 mi NNE 8.1 mph - N/A   Overcast
10:54 AM 39.0 °F 33.4 °F 32.0 °F 76% 29.98 in 10.0 mi NNE 8.1 mph - N/A   Overcast
11:39 AM 41.0 °F 35.2 °F 30.2 °F 65% 29.96 in 10.0 mi North 9.2 mph - N/A   Mostly Cloudy
11:54 AM 42.1 °F 37.1 °F 28.9 °F 60% 30.00 in 10.0 mi NNE 8.1 mph - N/A   Partly Cloudy
12:54 PM 42.1 °F 34.9 °F 28.9 °F 60% 30.00 in 10.0 mi North 13.8 mph 17.3 mph N/A   Mostly Cloudy
1:20 PM 42.8 °F 37.0 °F 28.4 °F 57% 29.97 in 10.0 mi NNE 10.4 mph - N/A   Mostly Cloudy
1:41 PM 41.0 °F 36.4 °F 28.4 °F 61% 29.98 in 10.0 mi NNE 6.9 mph - N/A   Overcast
1:54 PM 41.0 °F 34.7 °F 28.9 °F 62% 30.02 in 10.0 mi North 10.4 mph - N/A   Overcast
2:54 PM 41.0 °F 34.3 °F 28.0 °F 60% 30.04 in 10.0 mi North 11.5 mph - N/A   Overcast
3:54 PM 39.9 °F 35.8 °F 28.9 °F 65% 30.06 in 10.0 mi NNE 5.8 mph - N/A   Overcast
4:54 PM 39.0 °F 34.0 °F 28.0 °F 65% 30.07 in 10.0 mi NE 6.9 mph - N/A   Clear
5:54 PM 36.0 °F - 27.0 °F 70% 30.09 in 10.0 mi Calm Calm - N/A   Mostly Cloudy
6:54 PM 33.1 °F - 27.0 °F 78% 30.11 in 10.0 mi Calm Calm - N/A   Mostly Cloudy
7:54 PM 28.9 °F - 26.1 °F 89% 30.14 in 10.0 mi Calm Calm - N/A   Clear
8:54 PM 28.0 °F - 25.0 °F 88% 30.15 in 10.0 mi Calm Calm - N/A   Partly Cloudy
9:54 PM 28.0 °F - 25.0 °F 88% 30.17 in 10.0 mi Calm Calm - N/A   Mostly Cloudy
10:54 PM 27.0 °F - 25.0 °F 92% 30.18 in 10.0 mi Calm Calm - N/A   Overcast
11:54 PM 27.0 °F - 25.0 °F 92% 30.19 in 10.0 mi Calm Calm - N/A   Partly Cloudy